Location: Stockholm
(59.3333°N, 18.0500°E)
Time: 01:33:44
(UTC+02:00)

ISS - Pass Details

Date: 16 May 2021
Orbit: 417 x 422 km, 51.6° (Epoch: 16 June)

Event Time Altitude Azimuth Distance (km) Brightness Sun altitude
Rises 01:16:05 0° 255° (WSW) 2,371 -0.2 -11.3°
Reaches altitude 10° 01:18:30 10° 239° (WSW) 1,507 -1.3 -11.3°
Maximum altitude 01:21:08 21° 188° (S) 1,002 -2.5 -11.2°
Drops below altitude 10° 01:23:45 10° 137° (SE) 1,507 -1.3 -11.1°
Sets 01:26:10 0° 121° (ESE) 2,372 -0.1 -11.1°
